| time (UTC) | temp F | wind direction | speed knots | gust knots | rain 1hr in | rain 24hr in | rain mn in | humidity % | barometer mb |
| 20260510191532 | 50 | 309 | 4.3 | 10.4 | 0.00 | 0.17 | 0.00 | 46 | 1020.3 |
| 20260510190031 | 50 | 300 | 5.2 | 8.7 | 0.00 | 0.17 | 0.00 | 45 | 1020.3 |
| 20260510184528 | 50 | 315 | 2.6 | 9.6 | 0.00 | 0.17 | 0.00 | 48 | 1020.0 |
| 20260510183031 | 49 | 257 | 4.3 | 13.0 | 0.00 | 0.17 | 0.00 | 47 | 1019.7 |
| 20260510181526 | 49 | 280 | 4.3 | 11.3 | 0.00 | 0.17 | 0.00 | 46 | 1019.7 |
| 20260510180025 | 50 | 288 | 4.3 | 8.7 | 0.00 | 0.17 | 0.00 | 46 | 1019.6 |
| 20260510174524 | 49 | 274 | 3.5 | 12.2 | 0.00 | 0.17 | 0.00 | 51 | 1019.5 |
| 20260510173023 | 50 | 302 | 4.3 | 10.4 | 0.00 | 0.17 | 0.00 | 51 | 1019.4 |
| 20260510171521 | 49 | 280 | 4.3 | 11.3 | 0.00 | 0.17 | 0.00 | 53 | 1019.4 |
| 20260510170018 | 48 | 319 | 6.1 | 10.4 | 0.00 | 0.17 | 0.00 | 52 | 1019.2 |
| 20260510164518 | 48 | 290 | 6.1 | 14.8 | 0.00 | 0.17 | 0.00 | 49 | 1019.2 |
| 20260510163016 | 48 | 281 | 5.2 | 9.6 | 0.00 | 0.17 | 0.00 | 50 | 1019.0 |
| 20260510161513 | 48 | 291 | 5.2 | 12.2 | 0.00 | 0.17 | 0.00 | 51 | 1018.9 |
| 20260510160011 | 48 | 300 | 5.2 | 10.4 | 0.00 | 0.17 | 0.00 | 53 | 1018.8 |
| 20260510154512 | 47 | 329 | 4.3 | 10.4 | 0.00 | 0.17 | 0.00 | 55 | 1018.6 |
| 20260510153009 | 47 | 279 | 4.3 | 9.6 | 0.00 | 0.17 | 0.00 | 55 | 1018.5 |
| 20260510151507 | 47 | 304 | 4.3 | 9.6 | 0.00 | 0.17 | 0.00 | 58 | 1018.4 |
| 20260510150005 | 47 | 307 | 5.2 | 13.9 | 0.00 | 0.17 | 0.00 | 59 | 1018.2 |
| 20260510144503 | 47 | 304 | 2.6 | 11.3 | 0.00 | 0.17 | 0.00 | 58 | 1017.9 |
| 20260510143002 | 47 | 302 | 4.3 | 7.8 | 0.00 | 0.17 | 0.00 | 58 | 1017.7 |
| 20260510141606 | 46 | 279 | 3.5 | 11.3 | 0.00 | 0.17 | 0.00 | 59 | 1017.6 |
| 20260510141501 | 46 | 306 | 4.3 | 11.3 | 0.00 | 0.17 | 0.00 | 57 | 1017.6 |
| 20260510140058 | 47 | 261 | 3.5 | 9.6 | 0.00 | 0.17 | 0.00 | 58 | 1017.2 |
| 20260510134612 | 46 | 273 | 2.6 | 8.7 | 0.00 | 0.17 | 0.00 | 56 | 1016.9 |
| 20260510133053 | 46 | 288 | 2.6 | 7.0 | 0.00 | 0.17 | 0.00 | 58 | 1016.8 |
| 20260510131550 | 45 | 290 | 1.7 | 7.0 | 0.00 | 0.17 | 0.00 | 60 | 1016.5 |
| 20260510130047 | 45 | 275 | 2.6 | 10.4 | 0.00 | 0.17 | 0.00 | 62 | 1016.5 |
| 20260510124552 | 44 | 268 | 4.3 | 12.2 | 0.00 | 0.17 | 0.00 | 64 | 1016.5 |
| 20260510123039 | 43 | 297 | 2.6 | 7.8 | 0.00 | 0.17 | 0.00 | 65 | 1016.5 |
| 20260510121536 | 42 | 307 | 3.5 | 10.4 | 0.00 | 0.17 | 0.00 | 67 | 1016.3 |
| 20260510120039 | 42 | 287 | 3.5 | 8.7 | 0.00 | 0.17 | 0.00 | 69 | 1016.1 |
| 20260510114531 | 41 | 263 | 1.7 | 7.0 | 0.00 | 0.17 | 0.00 | 72 | 1015.7 |
| 20260510113030 | 40 | 275 | 2.6 | 7.0 | 0.00 | 0.17 | 0.00 | 73 | 1015.5 |
| 20260510111527 | 39 | 263 | 0.9 | 7.8 | 0.00 | 0.17 | 0.00 | 75 | 1015.2 |
| 20260510110030 | 38 | 286 | 1.7 | 5.2 | 0.00 | 0.17 | 0.00 | 76 | 1015.0 |
| 20260510104523 | 38 | 265 | 1.7 | 5.2 | 0.00 | 0.17 | 0.00 | 77 | 1014.8 |
| 20260510103022 | 37 | 263 | 0.9 | 3.5 | 0.00 | 0.17 | 0.00 | 78 | 1014.5 |
| 20260510101521 | 37 | 258 | 0.9 | 6.1 | 0.00 | 0.17 | 0.00 | 78 | 1014.3 |
| 20260510100017 | 37 | 272 | 0.0 | 0.0 | 0.00 | 0.17 | 0.00 | 78 | 1014.1 |
| 20260510094525 | 37 | 290 | 0.0 | 2.6 | 0.00 | 0.17 | 0.00 | 77 | 1013.6 |
| 20260510093013 | 37 | 302 | 0.9 | 3.5 | 0.00 | 0.17 | 0.00 | 77 | 1013.4 |
| 20260510091520 | 37 | 281 | 0.9 | 3.5 | 0.00 | 0.17 | 0.00 | 78 | 1013.1 |
| 20260510090008 | 37 | 261 | 0.0 | 1.7 | 0.00 | 0.17 | 0.00 | 78 | 1013.0 |
| 20260510084505 | 38 | 254 | 0.9 | 2.6 | 0.00 | 0.17 | 0.00 | 77 | 1012.8 |
| 20260510083004 | 38 | 254 | 0.9 | 3.5 | 0.00 | 0.17 | 0.00 | 77 | 1012.7 |
| 20260510081629 | 38 | 311 | 1.7 | 5.2 | 0.00 | 0.17 | 0.00 | 78 | 1012.3 |
| 20260510080057 | 38 | 300 | 0.0 | 0.0 | 0.00 | 0.17 | 0.00 | 78 | 1012.2 |
| 20260510074602 | 38 | 300 | 1.7 | 4.3 | 0.00 | 0.17 | 0.00 | 79 | 1012.1 |
| 20260510073055 | 38 | 311 | 0.0 | 2.6 | 0.00 | 0.17 | 0.00 | 79 | 1011.9 |
| 20260510071549 | 39 | 311 | 0.0 | 2.6 | 0.00 | 0.17 | 0.00 | 77 | 1011.7 |
| 20260510070048 | 39 | 309 | 0.0 | 3.5 | 0.00 | 0.17 | 0.00 | 77 | 1011.6 |
| 20260510064544 | 40 | 315 | 1.7 | 4.3 | 0.00 | 0.17 | 0.00 | 76 | 1011.7 |
| 20260510063043 | 40 | 290 | 0.9 | 3.5 | 0.00 | 0.17 | 0.00 | 76 | 1011.7 |
| 20260510061541 | 40 | 323 | 0.9 | 4.3 | 0.00 | 0.17 | 0.00 | 74 | 1011.7 |
| 20260510060048 | 40 | 324 | 1.7 | 4.3 | 0.00 | 0.17 | 0.00 | 73 | 1011.7 |
| 20260510054535 | 41 | 324 | 0.9 | 4.3 | 0.00 | 0.17 | 0.00 | 71 | 1011.5 |
| 20260510053034 | 41 | 303 | 2.6 | 5.2 | 0.00 | 0.17 | 0.00 | 71 | 1011.4 |
| 20260510051538 | 41 | 313 | 2.6 | 9.6 | 0.00 | 0.17 | 0.00 | 71 | 1011.2 |
| 20260510050030 | 41 | 335 | 2.6 | 5.2 | 0.00 | 0.17 | 0.00 | 71 | 1011.0 |
| 20260510044527 | 41 | 326 | 1.7 | 7.0 | 0.00 | 0.17 | 0.00 | 71 | 1010.9 |
| 20260510043025 | 42 | 308 | 3.5 | 11.3 | 0.00 | 0.17 | 0.00 | 70 | 1010.8 |
| 20260510041528 | 43 | 355 | 4.3 | 10.4 | 0.00 | 0.17 | 0.00 | 69 | 1010.6 |
| 20260510040018 | 43 | 315 | 3.5 | 9.6 | 0.00 | 0.17 | 0.00 | 71 | 1010.4 |
| 20260510034515 | 43 | 324 | 0.9 | 7.0 | 0.00 | 0.17 | 0.17 | 73 | 1010.1 |
| 20260510033012 | 43 | 329 | 1.7 | 7.8 | 0.00 | 0.17 | 0.17 | 73 | 1009.7 |
| 20260510031508 | 44 | 302 | 3.5 | 6.1 | 0.00 | 0.17 | 0.17 | 71 | 1009.6 |
| 20260510030007 | 44 | 323 | 2.6 | 9.6 | 0.00 | 0.17 | 0.17 | 68 | 1009.5 |
| 20260510024510 | 45 | 304 | 2.6 | 7.8 | 0.00 | 0.17 | 0.17 | 64 | 1009.2 |
| 20260510023008 | 46 | 307 | 2.6 | 7.0 | 0.00 | 0.17 | 0.17 | 60 | 1009.1 |
| 20260510021506 | 47 | 321 | 2.6 | 5.2 | 0.00 | 0.17 | 0.17 | 57 | 1008.9 |
| 20260510020004 | 47 | 338 | 0.0 | 4.3 | 0.00 | 0.17 | 0.17 | 59 | 1008.5 |
| 20260510014504 | 47 | 312 | 2.6 | 7.8 | 0.00 | 0.17 | 0.17 | 60 | 1008.2 |
| 20260510013008 | 48 | 306 | 2.6 | 7.0 | 0.00 | 0.17 | 0.17 | 61 | 1008.1 |
| 20260510011629 | 48 | 315 | 1.7 | 5.2 | 0.00 | 0.17 | 0.17 | 64 | 1007.8 |
| 20260510010110 | 48 | 299 | 0.9 | 7.0 | 0.00 | 0.17 | 0.17 | 64 | 1007.4 |
| 20260510004600 | 49 | 339 | 2.6 | 7.0 | 0.00 | 0.17 | 0.17 | 63 | 1007.0 |
| 20260510004500 | 49 | 298 | 2.6 | 7.0 | 0.00 | 0.17 | 0.17 | 63 | 1007.0 |
| 20260510003107 | 49 | 337 | 1.7 | 8.7 | 0.00 | 0.17 | 0.17 | 64 | 1006.7 |
| 20260510001558 | 50 | 309 | 3.5 | 7.8 | 0.00 | 0.17 | 0.17 | 63 | 1006.5 |
| 20260510000059 | 50 | 325 | 2.6 | 9.6 | 0.00 | 0.17 | 0.17 | 65 | 1006.2 |
| 20260509234606 | 51 | 309 | 6.1 | 12.2 | 0.00 | 0.17 | 0.17 | 63 | 1005.8 |
| 20260509233102 | 52 | 309 | 4.3 | 13.9 | 0.00 | 0.17 | 0.17 | 64 | 1005.3 |
| 20260509231604 | 57 | 313 | 7.8 | 13.0 | 0.00 | 0.17 | 0.17 | 57 | 1004.9 |
| 20260509230055 | 58 | 284 | 5.2 | 11.3 | 0.00 | 0.17 | 0.17 | 59 | 1004.3 |
| 20260509224602 | 58 | 263 | 6.1 | 17.4 | 0.00 | 0.17 | 0.17 | 59 | 1004.0 |
| 20260509223053 | 58 | 277 | 6.1 | 16.5 | 0.00 | 0.17 | 0.17 | 58 | 1003.9 |
| 20260509221553 | 58 | 283 | 7.0 | 15.6 | 0.00 | 0.17 | 0.17 | 61 | 1003.8 |
| 20260509220052 | 59 | 259 | 7.8 | 15.6 | 0.00 | 0.17 | 0.17 | 63 | 1003.6 |
| 20260509214551 | 59 | 267 | 4.3 | 12.2 | 0.00 | 0.17 | 0.17 | 65 | 1003.4 |
| 20260509213102 | 59 | 245 | 4.3 | 13.0 | 0.00 | 0.17 | 0.17 | 67 | 1003.4 |
| 20260509211611 | 58 | 246 | 5.2 | 14.8 | 0.00 | 0.17 | 0.17 | 70 | 1003.3 |
| 20260509210056 | 57 | 200 | 0.9 | 9.6 | 0.00 | 0.17 | 0.17 | 77 | 1003.2 |
| 20260509204559 | 57 | 236 | 4.3 | 13.0 | 0.02 | 0.17 | 0.17 | 79 | 1002.9 |
| 20260509203056 | 55 | 263 | 6.1 | 13.0 | 0.17 | 0.17 | 0.17 | 83 | 1002.8 |
| 20260509201547 | 53 | 236 | 5.2 | 11.3 | 0.17 | 0.17 | 0.17 | 86 | 1002.5 |
| 20260509200046 | 51 | 242 | 6.1 | 14.8 | 0.17 | 0.17 | 0.17 | 86 | 1002.6 |
| 20260509194547 | 51 | 229 | 7.8 | 28.7 | 0.16 | 0.16 | 0.16 | 78 | 1003.3 |
| 20260509193045 | 61 | 206 | 5.2 | 17.4 | 0.00 | 0.00 | 0.00 | 60 | 1001.2 |